Pasco, WA

4:03 PM PDT on October 17, 2017 (GMT -0700)
Tri-Cities

Weather History for KPSC - March, 2012

Change the Weather History Date:

Tuesday, March 27, 2012

  Actual Average Record
Temperature  
Mean Temperature 45 °F 49 °F  
Max Temperature 57 °F 62 °F 79 °F (2015)
Min Temperature 32 °F 36 °F 27 °F (1996)
Degree Days  
Heating Degree Days 20 16  
Month to date heating degree days 521 519  
Since 1 July heating degree days 4391 4402  
Cooling Degree Days 0 0  
Month to date cooling degree days 0 0  
Year to date cooling degree days 0 0  
Moisture  
Dew Point 39 °F    
Average Humidity 72    
Maximum Humidity 89    
Minimum Humidity 55    
Precipitation  
Precipitation 0.22 in 0.03 in 0.34 in (1981)
Month to date precipitation 0.88 0.69  
Year to date precipitation 2.54 2.77  
Snow  
Snow 0.00 in - - ()
Snow Depth 0.00 in    
Sea Level Pressure  
Sea Level Pressure 29.78 in    
Wind  
Wind Speed 4 mph (ESE)    
Max Wind Speed 17 mph    
Max Gust Speed 21 mph    
Visibility 10 miles    
Events Rain    
T = Trace of Precipitation, MM = Missing Value Source: NWS Daily Summary

Daily Weather History Graph

Daily Weather History Graph

Search for Another Location

Airport or City:

Trip Planner

Search our weather history database for the weather conditions in past years. The results will help you decide how hot, cold, wet, or windy it might be!

Date:

Astronomy

Mar. 27, 2012 Rise Set
Actual Time 6:44 AM PDT 7:19 PM PDT
Civil Twilight 6:14 AM PDT 7:49 PM PDT
Nautical Twilight 5:38 AM PDT 8:25 PM PDT
Astronomical Twilight 5:01 AM PDT 9:02 PM PDT
Moon 9:01 AM PDT (3/27) No Moon Set
Length of Visible Light 13h 35m
Length of Day
12h 34m
Waxing Crescent, 23% of the Moon is Illuminated
Mar 27
Waxing Crescent
Mar 30
First Quarter
Apr 6
Full
Apr 13
Last Quarter
Apr 21
New

Hourly Weather History & Observations

Time (PDT) Temp. Windchill Dew Point Humidity Pressure Visibility Wind Dir Wind Speed Gust Speed Precip Events Conditions
12:53 AM 34.0 °F - 28.9 °F 82% 29.82 in 10.0 mi Calm Calm - N/A   Clear
1:53 AM 36.0 °F 32.1 °F 28.9 °F 76% 29.83 in 10.0 mi East 4.6 mph - N/A   Clear
2:53 AM 34.0 °F - 30.0 °F 85% 29.83 in 10.0 mi Calm Calm - N/A   Clear
3:53 AM 33.1 °F 30.0 °F 28.9 °F 85% 29.83 in 10.0 mi North 3.5 mph - N/A   Clear
4:53 AM 35.1 °F - 30.9 °F 85% 29.84 in 10.0 mi Calm Calm - N/A   Scattered Clouds
5:53 AM 39.0 °F - 34.0 °F 82% 29.85 in 10.0 mi Calm Calm - N/A   Overcast
6:53 AM 43.0 °F 38.2 °F 37.9 °F 82% 29.86 in 10.0 mi ESE 8.1 mph - 0.00 in Rain Light Rain
7:53 AM 43.0 °F 41.3 °F 39.0 °F 86% 29.86 in 8.0 mi East 3.5 mph - 0.05 in Rain Light Rain
8:53 AM 44.1 °F - 41.0 °F 89% 29.87 in 10.0 mi Calm Calm - 0.03 in Rain Light Rain
9:53 AM 46.0 °F 43.1 °F 43.0 °F 89% 29.87 in 10.0 mi ESE 5.8 mph - 0.01 in Rain Light Rain
10:53 AM 48.9 °F - 44.1 °F 83% 29.86 in 10.0 mi ESE 9.2 mph - 0.01 in   Overcast
11:53 AM 52.0 °F - 43.0 °F 71% 29.83 in 10.0 mi ESE 12.7 mph - N/A   Overcast
12:53 PM 55.0 °F - 43.0 °F 64% 29.82 in 10.0 mi North - - N/A   Overcast
1:53 PM 55.4 °F - 42.8 °F 63% 29.78 in 10.0 mi ESE 13.8 mph - N/A   Overcast
2:53 PM 55.4 °F - 39.2 °F 54% 29.78 in 10.0 mi East 11.5 mph - N/A   Overcast
3:53 PM 55.4 °F - 39.2 °F 54% 29.75 in 10.0 mi ESE 11.5 mph - N/A   Mostly Cloudy
4:53 PM 57.2 °F - 41.0 °F 55% 29.73 in 10.0 mi ESE 11.5 mph - N/A Rain Light Rain
5:53 PM 54.0 °F - 43.0 °F 66% 29.70 in 10.0 mi East 11.5 mph - 0.00 in   Overcast
6:53 PM 53.1 °F - 43.0 °F 69% 29.68 in 10.0 mi ESE 10.4 mph - 0.00 in   Overcast
7:53 PM 53.1 °F - 43.0 °F 69% 29.66 in 10.0 mi East 11.5 mph - 0.00 in   Overcast
8:53 PM 52.0 °F - 44.1 °F 74% 29.65 in 10.0 mi SSE 3.5 mph - N/A   Overcast
9:53 PM 50.0 °F - 46.0 °F 86% 29.68 in 10.0 mi Calm Calm - 0.02 in Rain Light Rain
10:53 PM 50.0 °F - 46.0 °F 86% 29.67 in 10.0 mi Calm Calm - 0.08 in Rain Light Rain
11:53 PM 50.0 °F - 46.0 °F 86% 29.65 in 10.0 mi East 5.8 mph - 0.02 in   Overcast